Tracking 31027 objects as of 19-Jul-2025
HD Live streaming from Space Station
objects crossing your sky now

STARLINK-31759

Track STARLINK-31759 now!
10-day predictions
STARLINK-31759 is classified as:


NORAD ID: 59740
Int'l Code: 2024-090L
Perigee: 489.5 km
Apogee: 490.9 km
Inclination: 43.0 °
Period: 94.3 minutes
Semi major axis: 6861 km
RCS: Unknown
Launch date: May 13, 2024
Source: United States (US)
Launch site: AIR FORCE EASTERN TEST RANGE (AFETR)
Your satellite tracking list
SKOLTECH-B2
Track 1 satellite(s)




NASA's NSSDC Master Catalog

Two Line Element Set (TLE):
1 59740U 24090L   25199.32640468  .00000159  00000-0  15300-4 0  9997
2 59740  43.0027  67.3688 0001057 283.1154  76.9580 15.27572722 67590
Source of the keplerian elements: AFSPC